Orbital Elements
Epoch 2014 Aug. 11.0 TT = JDT 2456880.5
T 2014 Aug. 17.24633 TT MPC
q 0.5313201 (2000.0) P Q
n 0.17445968 Peri. 345.82785 +0.17567091 -0.96833520
a 3.1720449 Node 93.82787 +0.91964544 +0.09712505
e 0.8324992 Incl. 10.24078 +0.35127196 +0.22998624
P 5.65
From 446 observations 2003 May 26-2014 July 2, mean residual 0".8.
Nongravitational parameters A1 = -0.18, A2 = +0.0054.
|